Location: Brabourne
(51.1333°N, 1.0000°E)
Time: 22:12:08
(UTC+00:00)

NPP - Pass Details

Date: 20 June 2021
Orbit: 826 x 828 km, 98.7° (Epoch: 02 August)

Event Time Altitude Azimuth Distance (km) Brightness Sun altitude
Rises 01:23:34 0° 18° (NNE) 3,382 8.9 -13.1°
Reaches altitude 10° 01:26:01 10° 24° (NNE) 2,444 7.6 -12.9°
Maximum altitude 01:31:17 51° 100° (E) 1,034 4.2 -12.6°
Enters shadow 01:35:59 13° 174° (S) 2,228 5.4 -12.3°
